User: anonymous   Login
Location: Lafig�re
(44.4503°N, 4.0357°E)
Time: 01:27:52
(UTC+00:00)
Language:

Cosmos 1733 - Orbit

View from above orbital plane
View from above orbital plane
View from above satellite
View from above satellite

Ground track
Ground track

The orbit data is extracted from the following two-line orbital elements,

1 16611U 86018A   20334.46923267 +.00001359 +00000-0 +66018-4 0  9992
2 16611 082.4907 229.0376 0010770 287.1728 072.8326 15.17574738899930
Epoch (UTC): 29 November 2020 11:15:41
Eccentricity: 0.0010770
inclination: 82.4907°
perigee height: 506 km
apogee height: 520 km
right ascension of ascending node: 229.0376°
argument of perigee: 287.1728°
revolutions per day: 15.17574738
mean anomaly at epoch: 72.8326°
orbit number at epoch: 89993

The dashed part of the orbit path shows where the satellite is in the earth's shadow,  

DLR